Overview Statistics Trail Chart Weather Telemetry Raw packets
 

This is the latest recevied weather packets stored in our database for station/object SV9TNF-56. If no packets are shown the sender has not sent any weather packets the latest 10 day(s).

<< 100 101 102 103 104 105 106 >>
Time Temp. Humidity Pressure Rain* Wind** Luminosity Snow
1787908878 28.33° C 55% 1019 hPa 0 mm 12.07 m/s, 251° - -
1787908578 28.33° C 54% 1018.6 hPa 0 mm 8.49 m/s, 229° - -
1787908278 28.33° C 54% 1018.6 hPa 0 mm 14.31 m/s, 301° - -
1787907978 28.89° C 54% 1018.6 hPa 0 mm 13.41 m/s, 354° - -
1787907678 28.33° C 52% 1018.6 hPa 0 mm 16.09 m/s, 271° - -
1787907378 28.33° C 55% 1018.6 hPa 0 mm 11.18 m/s, 275° - -
1787907078 28.33° C 54% 1019 hPa 0 mm 11.18 m/s, 282° - -
1787906777 28.89° C 51% 1018.6 hPa 0 mm 14.75 m/s, 258° - -
1787906477 29.44° C 47% 1019 hPa 0 mm 13.41 m/s, 252° - -
1787906177 29.44° C 47% 1018.6 hPa 0 mm 6.26 m/s, 232° - -
1787905877 28.89° C 47% 1018.6 hPa 0 mm 6.26 m/s, 180° - -
1787905577 29.44° C 47% 1018.6 hPa 0 mm 6.26 m/s, 131° - -
1787905277 28.89° C 47% 1018.6 hPa 0 mm 7.15 m/s, 245° - -
1787904977 28.89° C 49% 1018.6 hPa 0 mm 8.94 m/s, 150° - -
1787904677 28.89° C 48% 1018.6 hPa 0 mm 5.81 m/s, 162° - -
1787904377 29.44° C 47% 1018.6 hPa 0 mm 4.92 m/s, 161° - -
1787904077 28.89° C 49% 1018.6 hPa 0 mm 10.28 m/s, 126° - -
1787903776 28.89° C 48% 1018.6 hPa 0 mm 3.58 m/s, 236° - -
1787903477 28.33° C 48% 1018.6 hPa 0 mm 3.13 m/s, 179° - -
1787903178 28.33° C 49% 1018.6 hPa 0 mm 6.26 m/s, 138° - -
1787902615 28.33° C 49% 1018.6 hPa 0 mm 12.96 m/s, 172° - -
1787902315 28.33° C 49% 1018.3 hPa 0 mm 15.2 m/s, 90° - -
1787902015 28.33° C 50% 1018.6 hPa 0 mm 16.99 m/s, 100° - -
1787901715 28.33° C 49% 1018.6 hPa 0 mm 13.86 m/s, 102° - -
1787901415 27.78° C 52% 1018.6 hPa 0 mm 4.92 m/s, 199° - -

* Rain latest hour (hover to see other rain measurements)
** Current wind speed in m/s (hover to see current wind gust speed)